Weather History for Air Force Academy, CO

Change the Weather History Date:

Sunday, February 17, 2013

  Actual Average Record
Temperature  
Mean Temperature 44 °F -  
Max Temperature 59 °F 41 °F 60 °F (1997)
Min Temperature 27 °F 21 °F 5 °F (2006)
Degree Days  
Heating Degree Days 22    
Moisture  
Dew Point -5 °F    
Average Humidity 18    
Maximum Humidity 57    
Minimum Humidity 4    
Precipitation  
Precipitation 0.00 in - - ()
Sea Level Pressure  
Sea Level Pressure 29.72 in    
Wind  
Wind Speed 9 mph (NW)    
Max Wind Speed 20 mph    
Max Gust Speed 30 mph    
Visibility 10 miles    
Events      
Averages and records for this station are not official NWS values.
T = Trace of Precipitation, MM = Missing Value Source: NWS Daily Summary

Daily Weather History Graph

Daily Weather History Graph

Search for Another Location

Airport:

Trip Planner

Search our weather history database for the weather conditions in past years. The results will help you decide how hot, cold, wet, or windy it might be!

Date:

Astronomy

Feb. 17, 2013 Rise Set
Actual Time 6:47 AM MST 5:39 PM MST
Civil Twilight 6:20 AM MST 6:06 PM MST
Nautical Twilight 5:49 AM MST 6:37 PM MST
Astronomical Twilight 5:18 AM MST 7:08 PM MST
Moon 10:46 AM MST 12:33 AM MST
Length of Visible Light 11h 46m
Length of Day
10h 51m
Waxing Crescent, 49% of the Moon is Illuminated
Feb 17
Waxing Crescent
Feb 17
First Quarter
Feb 25
Full
Mar 4
Last Quarter
Mar 11
New

Hourly Weather History & Observations

Time (MST) Temp. Windchill Dew Point Humidity Pressure Visibility Wind Dir Wind Speed Gust Speed Precip Events Conditions
12:58 AM 36.0 °F 32.1 °F 4.8 °F 27% 29.92 in 10.0 mi Variable 4.6 mph - N/A   Clear
1:58 AM 35.1 °F 32.2 °F 1.0 °F 24% 29.90 in 10.0 mi Variable 3.5 mph - N/A   Clear
2:58 AM 34.3 °F 26.5 °F -2.9 °F 20% 29.87 in 10.0 mi WNW 10.4 mph 28.8 mph N/A   Clear
3:20 AM 42.8 °F 35.1 °F -14.8 °F 8% 29.93 in 10.0 mi NNW 16.1 mph 27.6 mph N/A   Clear
3:32 AM 44.6 °F 38.4 °F -7.6 °F 11% 29.93 in 10.0 mi ENE 12.7 mph 21.9 mph N/A   Clear
3:58 AM 38.8 °F 32.6 °F -3.6 °F 17% 29.83 in 10.0 mi WNW 9.2 mph - N/A   Clear
4:58 AM 38.1 °F 34.6 °F -4.4 °F 16% 29.84 in 10.0 mi NNE 4.6 mph - N/A   Clear
5:58 AM 36.3 °F 33.7 °F -4.5 °F 17% 29.87 in 10.0 mi Variable 3.5 mph - N/A   Clear
6:58 AM 31.5 °F 25.8 °F -2.9 °F 23% 29.89 in 10.0 mi North 5.8 mph - N/A   Clear
7:58 AM 31.3 °F 27.9 °F -5.1 °F 21% 29.91 in 10.0 mi ESE 3.5 mph - N/A   Clear
8:58 AM 34.2 °F 30.0 °F -1.3 °F 22% 29.86 in 10.0 mi East 4.6 mph - N/A   Clear
9:58 AM 43.3 °F 37.7 °F -2.6 °F 15% 29.77 in 10.0 mi SSE 10.4 mph - N/A   Clear
10:58 AM 48.7 °F - -2.9 °F 12% 29.74 in 10.0 mi SSE 12.7 mph - N/A   Clear
11:34 AM 51.8 °F - -7.6 °F 8% 29.74 in 10.0 mi SE 13.8 mph - N/A   Clear
11:58 AM 52.7 °F - -7.6 °F 8% 29.67 in 10.0 mi ESE 6.9 mph - N/A   Clear
12:58 PM 54.1 °F - -12.1 °F 6% 29.56 in 10.0 mi Variable 6.9 mph - N/A   Clear
1:03 PM 55.4 °F - -14.8 °F 5% 29.66 in 10.0 mi SSW 15.0 mph 20.7 mph N/A   Clear
1:04 PM 55.4 °F - -14.8 °F 5% 29.66 in 10.0 mi WSW 11.5 mph 20.7 mph N/A   Clear
1:15 PM 59.0 °F - -16.6 °F 4% 29.65 in 10.0 mi WSW 11.5 mph 21.9 mph N/A   Clear
1:48 PM 59.0 °F - -16.6 °F 4% 29.62 in 10.0 mi West 17.3 mph 28.8 mph N/A   Clear
1:58 PM 59.4 °F - -16.4 °F 4% 29.53 in 10.0 mi West 11.5 mph 28.8 mph N/A   Partly Cloudy
2:58 PM 57.7 °F - -13.0 °F 5% 29.49 in 10.0 mi West 13.8 mph 29.9 mph N/A   Clear
3:58 PM 55.4 °F - -14.6 °F 5% 29.50 in 10.0 mi WSW 9.2 mph 23.0 mph N/A   Partly Cloudy
4:58 PM 52.9 °F - -16.6 °F 5% 29.52 in 10.0 mi Variable 6.9 mph 17.3 mph N/A   Clear
5:58 PM 46.4 °F - -14.3 °F 7% 29.56 in 10.0 mi Calm Calm - N/A   Clear
6:58 PM 39.9 °F 36.7 °F -5.6 °F 14% 29.62 in 10.0 mi West 4.6 mph - N/A   Clear
7:58 PM 33.3 °F 26.4 °F -5.4 °F 19% 29.64 in 10.0 mi NNW 8.1 mph - N/A   Clear
8:58 PM 42.1 °F 35.2 °F -5.4 °F 13% 29.61 in 10.0 mi WNW 12.7 mph - N/A   Clear
9:37 PM 32.0 °F 20.5 °F 14.0 °F 48% 29.68 in 10.0 mi North 18.4 mph 27.6 mph N/A   Clear
9:41 PM 32.0 °F 21.2 °F 14.0 °F 48% 29.70 in 10.0 mi NNW 16.1 mph 27.6 mph N/A   Clear
9:58 PM 32.4 °F 20.6 °F 14.0 °F 47% 29.68 in 10.0 mi NNW 19.6 mph 28.8 mph N/A   Clear
10:58 PM 28.2 °F 15.5 °F 13.5 °F 54% 29.70 in 10.0 mi North 18.4 mph 24.2 mph N/A   Clear
11:58 PM 27.1 °F 16.9 °F 13.8 °F 57% 29.70 in 10.0 mi NNW 11.5 mph - N/A   Clear